| time (UTC) | temp F | wind direction | speed MPH | gust MPH | rain 1hr in | rain 24hr in | rain mn in | humidity % | barometer mb |
| 20260906200046 | 90 | 138 | 6.0 | 16.0 | 0.00 | 0.00 | 0.00 | 50 | 1009.5 |
| 20260906194536 | 88 | 96 | 4.0 | 13.0 | 0.00 | 0.00 | 0.00 | 58 | 1009.7 |
| 20260906193044 | 86 | 165 | 5.0 | 16.0 | 0.00 | 0.00 | 0.00 | 60 | 1010.1 |
| 20260906191537 | 85 | 150 | 5.0 | 16.0 | 0.00 | 0.00 | 0.00 | 64 | 1010.3 |
| 20260906190029 | 83 | 116 | 7.0 | 16.0 | 0.00 | 0.00 | 0.00 | 66 | 1010.6 |
| 20260906184522 | 82 | 119 | 5.0 | 14.0 | 0.00 | 0.00 | 0.00 | 72 | 1010.9 |
| 20260906183021 | 80 | 94 | 5.0 | 14.0 | 0.00 | 0.00 | 0.00 | 72 | 1011.3 |
| 20260906181537 | 80 | 3 | 4.0 | 14.0 | 0.00 | 0.00 | 0.00 | 74 | 1011.4 |
| 20260906180021 | 79 | 107 | 5.0 | 13.0 | 0.00 | 0.00 | 0.00 | 76 | 1011.9 |
| 20260906174511 | 77 | 118 | 4.0 | 8.0 | 0.00 | 0.00 | 0.00 | 81 | 1012.1 |
| 20260906173011 | 75 | 103 | 2.0 | 7.0 | 0.00 | 0.00 | 0.00 | 84 | 1012.5 |
| 20260906171511 | 74 | 144 | 2.0 | 7.0 | 0.00 | 0.00 | 0.00 | 87 | 1012.6 |
| 20260906170011 | 73 | 136 | 3.0 | 13.0 | 0.00 | 0.00 | 0.00 | 89 | 1012.6 |
| 20260906164508 | 73 | 133 | 3.0 | 8.0 | 0.00 | 0.00 | 0.00 | 91 | 1012.7 |
| 20260906163008 | 72 | 104 | 4.0 | 7.0 | 0.00 | 0.00 | 0.00 | 91 | 1012.5 |
| 20260906161508 | 71 | 129 | 1.0 | 6.0 | 0.00 | 0.00 | 0.00 | 92 | 1012.4 |
| 20260906160006 | 71 | 150 | 4.0 | 11.0 | 0.00 | 0.00 | 0.00 | 92 | 1012.3 |
| 20260906154517 | 71 | 139 | 4.0 | 8.0 | 0.00 | 0.00 | 0.00 | 91 | 1012.3 |
| 20260906153012 | 70 | 113 | 1.0 | 5.0 | 0.00 | 0.00 | 0.00 | 93 | 1012.4 |
| 20260906151605 | 0 | 0.0 | 0.0 | 0.00 | 0.00 | 0.00 | 1012.7 | ||
| 20260906150055 | 0 | 0.0 | 0.0 | 0.00 | 0.00 | 0.00 | 1013.3 | ||
| 20260906144607 | 0 | 0.0 | 0.0 | 0.00 | 0.00 | 0.00 | 1013.2 | ||
| 20260906143049 | 0 | 0.0 | 0.0 | 0.00 | 0.00 | 0.00 | 1013.8 | ||
| 20260906141542 | 0 | 0.0 | 0.0 | 0.00 | 0.00 | 0.00 | 1013.5 | ||
| 20260906140037 | 0 | 0.0 | 0.0 | 0.00 | 0.00 | 0.00 | 1013.9 | ||
| 20260906134535 | 0 | 0.0 | 0.0 | 0.00 | 0.00 | 0.00 | 1013.3 | ||
| 20260906133028 | 0 | 0.0 | 0.0 | 0.00 | 0.00 | 0.00 | 1013.5 | ||
| 20260906131524 | 0 | 0.0 | 0.0 | 0.00 | 0.00 | 0.00 | 1013.2 | ||
| 20260906130019 | 0 | 0.0 | 0.0 | 0.00 | 0.00 | 0.00 | 1013.5 | ||
| 20260906124514 | 0 | 0.0 | 0.0 | 0.00 | 0.00 | 0.00 | 1012.7 | ||
| 20260906123011 | 0 | 0.0 | 0.0 | 0.00 | 0.00 | 0.00 | 1012.3 | ||
| 20260906121506 | 0 | 0.0 | 0.0 | 0.00 | 0.00 | 0.00 | 1011.9 | ||
| 20260906120001 | 0 | 0.0 | 0.0 | 0.00 | 0.00 | 0.00 | 1011.5 | ||
| 20260906114600 | 0 | 0.0 | 0.0 | 0.00 | 0.00 | 0.00 | 1011.0 | ||
| 20260906113053 | 0 | 0.0 | 0.0 | 0.00 | 0.00 | 0.00 | 1011.0 | ||
| 20260906111549 | 0 | 58 | 0.0 | 3.0 | 0.00 | 0.00 | 0.00 | 1010.4 | |
| 20260906110045 | 75 | 356 | 0.0 | 0.0 | 0.00 | 0.00 | 0.00 | 74 | 1010.5 |
| 20260906104548 | 75 | 143 | 0.0 | 0.0 | 0.00 | 0.00 | 0.00 | 72 | 1010.4 |
| 20260906103040 | 76 | 150 | 0.0 | 3.0 | 0.00 | 0.00 | 0.00 | 71 | 1010.0 |
| 20260906101540 | 76 | 139 | 0.0 | 0.0 | 0.00 | 0.00 | 0.00 | 71 | 1010.0 |
| 20260906100039 | 76 | 177 | 0.0 | 6.0 | 0.00 | 0.00 | 0.00 | 70 | 1009.7 |
| 20260906094557 | 77 | 152 | 0.0 | 6.0 | 0.00 | 0.00 | 0.00 | 69 | 1009.7 |
| 20260906093053 | 76 | 212 | 0.0 | 2.0 | 0.00 | 0.00 | 0.00 | 69 | 1009.7 |
| 20260906091536 | 76 | 167 | 0.0 | 4.0 | 0.00 | 0.00 | 0.00 | 69 | 1009.6 |
| 20260906090035 | 76 | 220 | 0.0 | 4.0 | 0.00 | 0.00 | 0.00 | 68 | 1009.3 |
| 20260906084534 | 77 | 224 | 0.0 | 2.0 | 0.00 | 0.00 | 0.00 | 67 | 1009.3 |
| 20260906083044 | 76 | 200 | 0.0 | 0.0 | 0.00 | 0.00 | 0.00 | 68 | 1009.3 |
| 20260906081537 | 76 | 212 | 0.0 | 1.0 | 0.00 | 0.00 | 0.00 | 69 | 1009.7 |
| 20260906080039 | 76 | 202 | 0.0 | 2.0 | 0.00 | 0.00 | 0.00 | 69 | 1009.9 |
| 20260906074533 | 76 | 225 | 0.0 | 0.0 | 0.00 | 0.00 | 0.00 | 69 | 1010.0 |
| 20260906073029 | 77 | 223 | 0.0 | 2.0 | 0.00 | 0.00 | 0.00 | 68 | 1010.1 |
| 20260906071529 | 77 | 163 | 0.0 | 2.0 | 0.00 | 0.00 | 0.00 | 67 | 1010.0 |
| 20260906070027 | 77 | 161 | 0.0 | 0.0 | 0.00 | 0.00 | 0.00 | 66 | 1010.1 |
| 20260906064525 | 78 | 158 | 0.0 | 7.0 | 0.00 | 0.00 | 0.00 | 66 | 1010.0 |
| 20260906063024 | 77 | 151 | 0.0 | 4.0 | 0.00 | 0.00 | 0.00 | 67 | 1009.9 |
| 20260906061526 | 77 | 156 | 0.0 | 1.0 | 0.00 | 0.00 | 0.00 | 68 | 1009.9 |
| 20260906060017 | 76 | 169 | 0.0 | 5.0 | 0.00 | 0.00 | 0.00 | 69 | 1009.8 |
| 20260906054513 | 76 | 172 | 0.0 | 0.0 | 0.00 | 0.00 | 0.00 | 69 | 1009.6 |
| 20260906053010 | 76 | 165 | 0.0 | 4.0 | 0.00 | 0.00 | 0.00 | 70 | 1009.4 |
| 20260906051508 | 76 | 91 | 0.0 | 2.0 | 0.00 | 0.00 | 0.00 | 71 | 1009.4 |
| 20260906050007 | 76 | 146 | 0.0 | 2.0 | 0.00 | 0.00 | 0.00 | 71 | 1009.3 |
| 20260906044505 | 76 | 158 | 0.0 | 5.0 | 0.00 | 0.00 | 0.00 | 71 | 1009.2 |
| 20260906043004 | 77 | 100 | 0.0 | 5.0 | 0.00 | 0.00 | 0.00 | 70 | 1009.2 |
| 20260906041505 | 77 | 151 | 0.0 | 1.0 | 0.00 | 0.00 | 0.00 | 70 | 1009.3 |
| 20260906040008 | 77 | 129 | 0.0 | 1.0 | 0.00 | 0.00 | 0.00 | 70 | 1009.6 |
| 20260906034506 | 77 | 107 | 0.0 | 2.0 | 0.00 | 0.00 | 0.00 | 69 | 1009.6 |
| 20260906033003 | 78 | 127 | 0.0 | 3.0 | 0.00 | 0.00 | 0.00 | 68 | 1009.5 |
| 20260906031502 | 78 | 120 | 0.0 | 1.0 | 0.00 | 0.00 | 0.00 | 67 | 1009.1 |
| 20260906030003 | 79 | 92 | 1.0 | 5.0 | 0.00 | 0.00 | 0.00 | 66 | 1009.0 |
| 20260906024502 | 79 | 142 | 0.0 | 1.0 | 0.00 | 0.00 | 0.00 | 66 | 1008.8 |
| 20260906023100 | 80 | 148 | 0.0 | 7.0 | 0.00 | 0.00 | 0.00 | 65 | 1008.7 |
| 20260906021601 | 80 | 153 | 0.0 | 5.0 | 0.00 | 0.00 | 0.00 | 64 | 1008.6 |
| 20260906020059 | 80 | 147 | 0.0 | 3.0 | 0.00 | 0.00 | 0.00 | 64 | 1008.4 |
| 20260906014643 | 81 | 139 | 0.0 | 5.0 | 0.00 | 0.00 | 0.00 | 62 | 1008.2 |
| 20260906013102 | 81 | 169 | 0.0 | 5.0 | 0.00 | 0.00 | 0.00 | 61 | 1007.9 |
| 20260906011604 | 82 | 134 | 1.0 | 7.0 | 0.00 | 0.00 | 0.00 | 59 | 1007.7 |
| 20260906010056 | 83 | 142 | 1.0 | 8.0 | 0.00 | 0.00 | 0.00 | 57 | 1007.8 |
| 20260906004610 | 84 | 115 | 4.0 | 11.0 | 0.00 | 0.00 | 0.00 | 56 | 1007.6 |
| 20260906003110 | 85 | 112 | 5.0 | 11.0 | 0.00 | 0.00 | 0.00 | 56 | 1007.8 |
| 20260906001554 | 86 | 122 | 6.0 | 16.0 | 0.00 | 0.00 | 0.00 | 55 | 1007.9 |
| 20260906000053 | 86 | 137 | 5.0 | 16.0 | 0.00 | 0.00 | 0.00 | 54 | 1007.7 |
| 20260905234558 | 88 | 100 | 6.0 | 15.0 | 0.00 | 0.00 | 0.00 | 51 | 1007.7 |
| 20260905233052 | 89 | 142 | 2.0 | 13.0 | 0.00 | 0.00 | 0.00 | 51 | 1007.6 |
| 20260905231551 | 91 | 131 | 3.0 | 13.0 | 0.00 | 0.00 | 0.00 | 48 | 1007.3 |
| 20260905230050 | 91 | 147 | 6.0 | 16.0 | 0.00 | 0.00 | 0.00 | 47 | 1007.1 |
| 20260905224550 | 91 | 136 | 6.0 | 16.0 | 0.00 | 0.00 | 0.00 | 49 | 1007.1 |
| 20260905223049 | 90 | 107 | 5.0 | 13.0 | 0.00 | 0.00 | 0.00 | 49 | 1006.9 |
| 20260905221608 | 95 | 94 | 8.0 | 19.0 | 0.00 | 0.00 | 0.00 | 42 | 1006.8 |
| 20260905220047 | 98 | 184 | 5.0 | 7.0 | 0.00 | 0.00 | 0.00 | 35 | 1006.5 |
| 20260905214544 | 98 | 214 | 0.0 | 6.0 | 0.00 | 0.00 | 0.00 | 36 | 1006.4 |
| 20260905213056 | 97 | 228 | 0.0 | 2.0 | 0.00 | 0.00 | 0.00 | 36 | 1006.6 |
| 20260905211544 | 97 | 233 | 4.0 | 13.0 | 0.00 | 0.00 | 0.00 | 35 | 1006.9 |
| 20260905210049 | 98 | 180 | 0.0 | 1.0 | 0.00 | 0.00 | 0.00 | 37 | 1007.1 |
| 20260905204543 | 97 | 176 | 2.0 | 7.0 | 0.00 | 0.00 | 0.00 | 38 | 1007.1 |
| 20260905203036 | 97 | 152 | 0.0 | 1.0 | 0.00 | 0.00 | 0.00 | 39 | 1007.5 |
| 20260905201532 | 97 | 174 | 2.0 | 7.0 | 0.00 | 0.00 | 0.00 | 41 | 1007.8 |